This is the latest recevied weather packets stored in our database for station/object DJ4RO-13. If no packets are shown the sender has not sent any weather packets the latest 10 day(s).
| Time | Temp. | Humidity | Pressure | Rain* | Wind** | Luminosity | Snow |
|---|---|---|---|---|---|---|---|
| 1776947950 | 14.44° C | 62% | 1028.1 hPa | 0 mm | - | 488 W/m² | - |
| 1776947630 | 13.33° C | 64% | 1028.1 hPa | 0 mm | - | 508 W/m² | - |
| 1776947310 | 13.33° C | 64% | 1028.2 hPa | 0 mm | - | 503 W/m² | - |
| 1776946990 | 13.33° C | 64% | 1028 hPa | 0 mm | - | 514 W/m² | - |
| 1776946670 | 12.22° C | 66% | 1028.2 hPa | 0 mm | - | 517 W/m² | - |
| 1776946352 | 12.22° C | 67% | 1028.2 hPa | 0 mm | - | 523 W/m² | - |
| 1776946052 | 12.22° C | 66% | 1028.7 hPa | 0 mm | - | 532 W/m² | - |
| 1776945742 | 12.78° C | 66% | 1028.3 hPa | 0 mm | - | 528 W/m² | - |
| 1776945422 | 12.22° C | 67% | 1028.5 hPa | 0 mm | - | 533 W/m² | - |
| 1776945103 | 12.22° C | 65% | 1028.4 hPa | 0 mm | - | 536 W/m² | - |
| 1776944782 | 11.67° C | 68% | 1028.6 hPa | 0 mm | - | 546 W/m² | - |
| 1776944446 | 11.67° C | 67% | 1028.1 hPa | 0 mm | - | 547 W/m² | - |
| 1776944126 | 11.11° C | 68% | 1028.5 hPa | 0 mm | - | 554 W/m² | - |
| 1776943806 | 11.67° C | 67% | 1028.3 hPa | 0 mm | - | 559 W/m² | - |
| 1776943486 | 10.56° C | 71% | 1028.4 hPa | 0 mm | - | 561 W/m² | - |
| 1776943166 | 11.11° C | 70% | 1028.3 hPa | 0 mm | - | 560 W/m² | - |
| 1776942846 | 11.11° C | 69% | 1028.6 hPa | 0 mm | - | 560 W/m² | - |
| 1776942526 | 10.56° C | 71% | 1028.8 hPa | 0 mm | - | 561 W/m² | - |
| 1776942206 | 11.11° C | 70% | 1028.6 hPa | 0 mm | - | 572 W/m² | - |
| 1776941886 | 11.11° C | 70% | 1028.6 hPa | 0 mm | - | 570 W/m² | - |
| 1776941566 | 11.11° C | 71% | 1028.7 hPa | 0 mm | - | 578 W/m² | - |
| 1776941246 | 10.56° C | 72% | 1028.8 hPa | 0 mm | - | 562 W/m² | - |
| 1776940926 | 10° C | 72% | 1028.9 hPa | 0 mm | - | 559 W/m² | - |
| 1776940606 | 9.44° C | 74% | 1028.7 hPa | 0 mm | - | 577 W/m² | - |
| 1776940286 | 10° C | 71% | 1028.6 hPa | 0 mm | - | 575 W/m² | - |
* Rain latest hour (hover to see other rain measurements)
** Current wind speed in m/s (hover to see current wind gust speed)